CW7443 Weather Reports


Display with metric or nautical units.
time (UTC)temp
F
wind
direction
speed
MPH
gust
MPH
rain 1hr
in
rain 24hr
in
rain mn
in
humidity
%
barometer
mb
20211024083515 48 92 0.0 0.0 0.00 0.33 0.04 95 1016.8
20211024082029 48 92 0.0 0.0 0.00 0.33 0.04 95 1016.8
20211024080527 48 92 0.0 0.0 0.00 0.33 0.04 95 1017.1
20211024075018 48 92 0.0 0.0 0.00 0.35 0.04 94 1017.2
20211024073529 48 92 0.0 0.0 0.00 0.35 0.04 94 1017.3
20211024072031 48 92 0.0 0.0 0.00 0.35 0.04 94 1017.4
20211024070526 48 92 0.0 0.0 0.00 0.35 0.04 94 1017.4
20211024065024 48 92 0.0 0.0 0.00 0.39 0.04 94 1017.3
20211024063516 48 92 0.0 1.0 0.02 0.39 0.04 93 1017.2
20211024062031 48 94 0.0 0.0 0.03 0.39 0.04 93 1017.2
20211024060530 48 94 0.0 1.0 0.03 0.39 0.04 93 1017.2
20211024055024 48 179 0.0 1.0 0.03 0.43 0.04 93 1017.0
20211024053521 48 179 0.0 0.0 0.01 0.41 0.02 93 1017.1
20211024052021 48 179 0.0 0.0 0.00 0.40 0.01 93 1016.8
20211024050522 48 179 0.0 0.0 0.00 0.40 0.01 92 1016.7
20211024045019 48 179 0.0 0.0 0.01 0.42 0.01 92 1016.6
20211024043532 48 179 0.0 0.0 0.01 0.42 0.01 92 1016.6
20211024042029 48 179 0.0 0.0 0.01 0.42 0.01 92 1016.8
20211024040527 48 179 0.0 0.0 0.02 0.42 0.01 91 1016.6
20211024035022 48 179 0.0 0.0 0.02 0.42 0.41 90 1016.6
20211024033535 49 179 0.0 0.0 0.02 0.42 0.41 89 1016.7
20211024032033 49 179 0.0 0.0 0.02 0.42 0.41 87 1016.8
20211024030528 49 179 0.0 1.0 0.01 0.41 0.40 85 1016.8
20211024025022 50 260 0.0 2.0 0.00 0.41 0.39 83 1016.9
20211024023519 51 125 0.0 1.0 0.00 0.41 0.39 81 1016.8
20211024022015 51 98 0.0 2.0 0.00 0.41 0.39 77 1016.7
20211024020517 52 221 0.0 1.0 0.00 0.41 0.39 77 1016.7
20211024015034 52 219 0.0 0.0 0.00 0.43 0.39 78 1016.6
20211024013527 51 219 0.0 2.0 0.00 0.43 0.39 81 1016.5
20211024012034 51 123 0.0 0.0 0.00 0.43 0.39 84 1016.2
20211024010528 51 123 0.0 0.0 0.00 0.43 0.39 88 1016.3
20211024005012 51 123 0.0 0.0 0.00 0.44 0.39 89 1016.2
20211024003533 51 123 0.0 0.0 0.00 0.44 0.39 88 1016.2
20211024002028 51 123 0.0 0.0 0.00 0.44 0.39 88 1016.2
20211024000533 52 123 0.0 0.0 0.00 0.44 0.39 88 1016.1
20211023235029 51 123 0.0 0.0 0.00 0.44 0.39 86 1016.2
20211023233525 52 123 0.0 0.0 0.00 0.44 0.39 85 1016.2
20211023232027 52 123 0.0 0.0 0.00 0.44 0.39 85 1015.8
20211023230518 52 123 0.0 0.0 0.00 0.44 0.39 84 1015.6
20211023225018 53 123 0.0 0.0 0.00 0.45 0.39 84 1015.7
20211023223529 53 123 0.0 0.0 0.00 0.45 0.39 82 1015.7
20211023222027 53 123 0.0 0.0 0.00 0.45 0.39 79 1015.6
20211023220521 53 123 0.0 0.0 0.00 0.45 0.39 76 1015.7
20211023215018 54 123 0.0 0.0 0.00 0.45 0.39 76 1015.7
20211023213529 54 123 0.0 0.0 0.00 0.45 0.39 71 1015.7
20211023212025 54 123 0.0 0.0 0.00 0.45 0.39 70 1015.8
20211023210515 55 123 0.0 0.0 0.00 0.45 0.39 69 1015.8
20211023205015 55 123 0.0 2.0 0.00 0.45 0.39 68 1015.7
20211023203517 55 173 0.0 4.0 0.00 0.45 0.39 64 1016.0
20211023202016 55 157 2.0 6.0 0.00 0.45 0.39 62 1015.7
20211023200531 55 177 1.0 6.0 0.00 0.45 0.39 65 1015.7
20211023195027 54 79 0.0 4.0 0.00 0.45 0.39 68 1015.8
20211023193520 54 53 0.0 4.0 0.00 0.45 0.39 69 1015.8
20211023192020 54 248 1.0 4.0 0.00 0.45 0.39 69 1015.9
20211023190530 54 176 0.0 2.0 0.00 0.45 0.39 72 1015.9
20211023185023 53 176 0.0 2.0 0.00 0.45 0.39 69 1015.8
20211023183522 53 176 0.0 2.0 0.00 0.45 0.39 70 1015.9
20211023182015 53 176 1.0 4.0 0.00 0.45 0.39 70 1016.1
20211023180522 52 150 0.0 1.0 0.00 0.45 0.39 77 1016.3
20211023175023 51 260 1.0 3.0 0.00 0.45 0.39 75 1016.6
20211023173514 51 218 1.0 3.0 0.00 0.45 0.39 75 1016.8
20211023172030 51 96 1.0 5.0 0.00 0.45 0.39 77 1016.8
20211023170520 51 73 0.0 7.0 0.00 0.45 0.39 77 1017.0
20211023165015 51 164 0.0 6.0 0.00 0.45 0.39 77 1017.2
20211023163530 51 106 0.0 3.0 0.00 0.45 0.39 81 1017.3
20211023162025 50 136 0.0 2.0 0.00 0.45 0.39 83 1017.3
20211023160516 49 143 0.0 3.0 0.01 0.45 0.39 84 1017.2
20211023155032 49 153 1.0 3.0 0.01 0.45 0.39 87 1017.2
20211023153522 48 153 0.0 4.0 0.01 0.45 0.39 91 1017.3
20211023152019 47 132 0.0 5.0 0.01 0.45 0.39 93 1017.2
20211023150531 47 13 0.0 1.0 0.00 0.44 0.38 95 1017.3
20211023145023 47 11 0.0 2.0 0.00 0.44 0.38 96 1017.3
20211023143518 46 11 0.0 2.0 0.00 0.44 0.38 96 1017.3
20211023142023 45 11 0.0 2.0 0.00 0.44 0.38 96 1017.2
20211023140519 45 11 0.0 2.0 0.00 0.44 0.38 96 1017.2
20211023135026 45 12 0.0 0.0 0.00 0.44 0.38 97 1016.9
20211023133523 45 13 0.0 0.0 0.00 0.44 0.38 97 1016.8
20211023132017 44 13 0.0 0.0 0.00 0.44 0.38 97 1016.7
20211023130533 44 13 0.0 0.0 0.00 0.44 0.38 96 1016.2
20211023125029 44 13 0.0 0.0 0.00 0.44 0.38 97 1016.1
20211023123525 44 13 0.0 0.0 0.04 0.44 0.38 96 1015.9
20211023122022 44 13 0.0 0.0 0.04 0.44 0.38 96 1016.2
20211023120520 44 13 0.0 0.0 0.04 0.44 0.38 96 1015.8
20211023115014 44 13 0.0 0.0 0.04 0.44 0.38 96 1016.1
20211023113514 44 13 0.0 0.0 0.00 0.40 0.34 96 1015.6
20211023112028 44 13 0.0 0.0 0.00 0.40 0.34 96 1015.5
20211023110525 44 13 0.0 0.0 0.00 0.40 0.34 96 1015.3
20211023105023 44 13 0.0 0.0 0.01 0.40 0.34 96 1015.2
20211023103518 44 13 0.0 1.0 0.02 0.40 0.34 96 1015.1
20211023102020 44 12 0.0 2.0 0.08 0.40 0.34 96 1014.9
20211023100518 44 12 0.0 0.0 0.14 0.40 0.34 96 1014.6
20211023095014 45 12 0.0 3.0 0.16 0.39 0.33 96 1014.7
20211023093514 45 84 0.0 1.0 0.19 0.38 0.32 96 1014.6
20211023092031 45 84 0.0 1.0 0.14 0.32 0.26 96 1014.6
20211023090525 46 90 0.0 0.0 0.08 0.26 0.20 96 1014.3
20211023085021 46 90 0.0 1.0 0.05 0.23 0.17 96 1014.3